This is the latest recevied weather packets stored in our database for station/object KB8DOA. If no packets are shown the sender has not sent any weather packets the latest 10 day(s).
| Time | Temp. | Humidity | Pressure | Rain* | Wind** | Luminosity | Snow |
|---|---|---|---|---|---|---|---|
| 1778146803 | 22.78° C | 91% | 1013.9 hPa | 0 mm | - | 0 W/m² | - |
| 1778132703 | 25.56° C | 73% | 1013 hPa | 0 mm | - | 0 W/m² | - |
| 1778132104 | 25.56° C | 72% | 1012.9 hPa | 0 mm | - | 0 W/m² | - |
| 1778127904 | 25.56° C | 70% | 1013.5 hPa | 0 mm | - | 0 W/m² | - |
| 1778125204 | 26.11° C | 70% | 1013.6 hPa | 0 mm | - | 0 W/m² | - |
| 1778118904 | 26.11° C | 70% | 1013.5 hPa | 0 mm | - | 0 W/m² | - |
| 1778112304 | 27.22° C | 63% | 1015.1 hPa | 0 mm | - | 0 W/m² | - |
| 1778108104 | 27.22° C | 77% | 1013.8 hPa | 0 mm | - | 0 W/m² | - |
| 1778106004 | 27.22° C | 77% | 1013.3 hPa | 0 mm | - | 0 W/m² | - |
| 1778105704 | 27.22° C | 77% | 1013.4 hPa | 0 mm | - | 0 W/m² | - |
| 1778102704 | 27.78° C | 74% | 1012.4 hPa | 0 mm | - | 0 W/m² | - |
| 1778095805 | 27.78° C | 73% | 1012.8 hPa | 0 mm | - | 0 W/m² | - |
| 1778094304 | 27.78° C | 74% | 1012.6 hPa | 0 mm | - | 0 W/m² | - |
| 1778091904 | 27.78° C | 76% | 1013.2 hPa | 0 mm | - | 0 W/m² | - |
| 1778091604 | 27.78° C | 75% | 1012.9 hPa | 0 mm | - | 0 W/m² | - |
| 1778091305 | 27.78° C | 74% | 1013.2 hPa | 0 mm | - | 0 W/m² | - |
| 1778091004 | 27.78° C | 75% | 1012.7 hPa | 0 mm | - | 0 W/m² | - |
| 1778089804 | 28.33° C | 73% | 1013.6 hPa | 0 mm | - | 1274 W/m² | - |
| 1778087704 | 27.78° C | 75% | 1013.7 hPa | 0 mm | - | 1281 W/m² | - |
| 1778087404 | 27.78° C | 75% | 1013.6 hPa | 0 mm | - | 1279 W/m² | - |
| 1778087103 | 27.78° C | 77% | 1013.7 hPa | 0 mm | - | 1275 W/m² | - |
| 1778085903 | 28.33° C | 74% | 1013.4 hPa | 0 mm | - | 1253 W/m² | - |
| 1778085004 | 28.33° C | 74% | 1013.6 hPa | 0 mm | - | 1227 W/m² | - |
| 1778083803 | 27.78° C | 74% | 1013.2 hPa | 0 mm | - | 1180 W/m² | - |
| 1778082605 | 27.78° C | 74% | 1013.2 hPa | 0 mm | - | 1122 W/m² | - |
* Rain latest hour (hover to see other rain measurements)
** Current wind speed in m/s (hover to see current wind gust speed)